Home   Weather   Akron   Past weeks

Flag for USA Past Weather in Akron, Ohio, USA — Yesterday and Last 2 Weeks

Now
63 °F

Light rain. Fog.


Feels Like: 63 °F
Forecast: 60 / 66 °F
Wind: 3 mph from North

Location: Akron Fulton International Airport

Current Time: Sep 29, 2016 at 4:32:18 PM

Latest Report: Sep 29, 2016 at 3:59 PM


Visibility: 5 mi

Pressure: 30.11 "Hg

Humidity: 87%

Dew Point: 59 °F

Location of AkronLocation

Past Weather in Akron — Graph

°F

Akron Temperature Yesterday

Maximum temperature yesterday: 71 °F (at 12:54 PM)
Minimum temperature yesterday: 54 °F (at 5:54 AM)
Average temperature yesterday: 62 °F

High & Low Weather Summary for the Past Weeks

 TemperatureHumidityPressure
High89 °F (Sep 23, 2:54 PM)94% (Sep 19, 7:54 AM)30.28 "Hg (Sep 19, 7:54 AM)
Low48 °F (Sep 27, 6:54 AM)26% (Sep 25, 4:54 PM)29.80 "Hg (Sep 27, 4:54 PM)
Average68 °F69%30.06 "Hg
* Reported Sep 14 2:54 PM — Sep 29 2:54 PM, Akron, Weather by CustomWeather, © 2016

Note: Actual official high and low records may vary slightly from our data, if they occured in-between our weather recording intervals... More about our weather records

Advertising

Akron Weather History for the Previous 24 Hours

Scroll right to see more
 ConditionsComfort  
Time TempWeatherWind HumidityBarometerVisibility
2:54 PM
Thu, Sep 29
65 °FMostly cloudy.7 mph85%30.10 "Hg10 mi
1:54 PM62 °FRain. Fog.7 mph86%30.13 "Hg2 mi
12:54 PM63 °FLight rain. Mostly cloudy.7 mph87%30.12 "Hg9 mi
12:03 PM64 °FLight rain. Overcast.7 mph78%30.12 "Hg9 mi
11:54 AM64 °FOvercast.8 mph78%30.11 "Hg10 mi
10:54 AM66 °FOvercast.6 mph78%30.09 "Hg10 mi
9:54 AM64 °FOvercast.6 mph84%30.09 "Hg10 mi
8:54 AM62 °FOvercast.No wind86%30.08 "Hg10 mi
7:54 AM61 °FLow clouds.No wind87%30.06 "Hg8 mi
7:02 AM60 °FMostly cloudy.No wind90%30.06 "Hg7 mi
6:54 AM60 °FMostly cloudy.3 mph90%30.05 "Hg7 mi
5:54 AM60 °FOvercast.3 mph90%30.00 "Hg10 mi
4:54 AM57 °FPassing clouds.7 mph90%29.99 "Hg10 mi
3:54 AM57 °FOvercast.3 mph90%29.99 "Hg10 mi
2:54 AM57 °FOvercast.7 mph90%29.97 "Hg10 mi
2:01 AM57 °FMostly cloudy.6 mph90%30.00 "Hg10 mi
1:04 AM58 °FMostly cloudy.7 mph87%30.00 "Hg9 mi
12:54 AM58 °FLight rain. Mostly cloudy.6 mph90%29.98 "Hg7 mi
12:04 AM58 °FMostly cloudy.5 mph90%29.99 "Hg9 mi
11:54 PM
Wed, Sep 28
58 °FMostly cloudy.3 mph93%29.98 "Hg8 mi
10:54 PM58 °FOvercast.3 mph90%29.98 "Hg10 mi
10:00 PM58 °FThundershowers. Fog.No wind90%29.99 "Hg6 mi
8:54 PM60 °FLight rain. Overcast.8 mph86%29.98 "Hg10 mi
7:54 PM60 °FLight rain. Overcast.7 mph86%29.93 "Hg9 mi
6:54 PM62 °FLight rain. Overcast.5 mph80%29.93 "Hg10 mi
5:54 PM62 °FLight rain. Overcast.No wind78%29.94 "Hg8 mi
4:54 PM64 °FOvercast.5 mph65%29.92 "Hg10 mi
Weather by CustomWeather, © 2016

See weather overviewHow to use our weather pages